Member area
Imprimable
Namur, 05/06/2017, BEL - Aedes Trail Namur
List of reports > Trail Namur - 30km - Result
Search: Page: [1]
305 Entries
 
Complains are not accepted anymore. Results are final.
Category
PosNrNameAgeNATTeamRealTimeTkmMoy.PlaceNameCity
1.2168MATHIEUX CEDRIC39BELENTRPARENTHESES2:10:352:10:374:22 13.781senSUARLÉE
2.2037CHARLIER JULIEN37BELSKYRUNNER2:14:572:15:004:30 13.332senLIÈGE
3.2079DUJARDIN VINCENT34FRATEAM DU CAILLOU2:22:202:22:274:45 12.643senVALENCIENNES
4.2019BOTTA MAXIME24BELHIBOU 392:28:532:28:574:58 12.094senBRUXELLES
5.2261VAN DEN BRANDEN BENOIT42BEL2:29:142:29:144:59 12.061ve1NAMUR
6.2262HUBERT ROMAIN22BEL2:32:182:32:235:05 11.815sen
7.2270FLALLEMAND CATHERINE38BELSKYRUNNER/BIOTR2:33:042:33:075:07 11.761damANDENNE
8.2062DELRIVIERE HUBERT30BEL2:34:422:34:515:10 11.626senATH
9.2137KEMPINAIRE BERNARD39BEL2:37:212:37:245:15 11.447senBRAIVES
10.2157LOMBA RENAUD38BELTRAKKS TEAM2:37:212:37:245:15 11.448senCOUTHUIN
11.2190PONCELET XAVIER42BELC.A.B.W. ET JO2:38:302:38:345:18 11.352ve1VITRIVAL
12.2015BINON MARTIN32BEL2:39:492:39:575:20 11.259senVEDRIN
13.2283VAN DER VEKEN PASCAL51BEL2:40:562:40:575:22 11.181ve2GRAND-LEEZ
14.2291DELMEE GILLES32BEL2:41:072:41:165:23 11.1610senDIEGEM
15.1039VIS STEPHAN49BEL2:42:042:42:095:25 11.103ve1
16.2248GERARD PIERRE35BEL2:42:352:42:395:26 11.0711senNAMUR
17.2250SEGHIN PAUL24BEL2:42:282:42:415:26 11.0612senETTERBEEK
18.2189POCHET BAPTISTE26BEL2:42:462:42:495:26 11.0613senFALISOLLE
19.2005ARNOULD SEBASTIEN39BELRC NAMUR2:43:502:43:545:28 10.9814senFLAWINNE
20.2294VERSTREPEN FRÉDÉRIC CHRISTIAN45BEL2:44:092:44:135:29 10.964ve1LA BRUYÈRE
21.2059DELERS MAXIMILIEN31BELTHEODO TEMPO2:44:452:44:495:30 10.9215senSOIGNIES
22.2023BRACK AXEL31BEL2:45:122:45:205:31 10.8916senTUBIZE
23.2286ZINK PHILIPPE41BEL2:45:592:46:085:33 10.845ve1
24.1063LUYCKX JORIS35BEL2:46:022:46:095:33 10.8317senKALMTHOUT
25.2238VAN TRICHT DAVY33BEL2:46:182:46:245:33 10.8218senBALEGEM
26.2123HENRARD JEAN-FRANÇOIS39BELHENRARD2:46:562:47:035:35 10.7819senEMINES
27.1048DETERME KARL38BEL2:47:062:47:135:35 10.7620senBRUXELLES
28.2053DEGIMBE RAPHAEL40BELRAPTOR TRAIL TE2:47:292:47:325:36 10.746ve1CHAMPION
29.2284VAN DER VEKEN GREG25BEL2:47:282:47:325:36 10.7421senGRAND-LEEZ
30.2076DHOOGE CHRIS47BELAVLO2:47:502:48:025:37 10.717ve1ZAFFELARE
31.2292LONNOY FABRICE34BEL2:48:352:48:445:38 10.6722senVEDRIN
32.2184PINCHART MICHAEL40BELMEUTIS BIKERS2:48:392:48:465:38 10.678ve1MEUX
33.2258FDEWINTER EMMANUELLE26BELBOUFFIOLS2:49:422:49:535:40 10.602damBOUFFIOULX
34.2198REGNIER PIERRE41BEL2:50:332:50:385:42 10.559ve1LIÈGE
35.2237VAN ROMPAIJ FABRICE37BEL2:50:442:50:525:42 10.5323senGESVES
36.2266FHOORELBEKE LIES35BEL2:51:112:51:165:43 10.513dam
37.2205ROMNÉE AMBROISE32BELSMAC2:51:342:51:355:44 10.4924senNAMUR
38.2209ROY RAPHAËL43FRA2:51:292:51:395:44 10.4910ve1FRIZON
39.2287GILBERT SAM28BEL2:51:412:51:465:44 10.4825senOVERIJSE
40.2224THOMAS BENJAMIN34BELSALZONE/SMAC2:51:472:51:555:44 10.4726senNAMUR
41.2272THÉMANS KARL25BEL2:51:532:52:065:45 10.4627senNAMUR
42.2086EMPAIN FRANÇOIS32BELWOLF TEAM WILLI2:52:042:52:105:45 10.4628senLABUISSIÈRE
43.2096FERRIN CÉDRIC36BELWOLF TEAM WILLI2:52:052:52:105:45 10.4629senMONS
44.2122HENQUINET QUENTIN28BELTEAM TRAIL THAR2:53:182:53:225:47 10.3830senRIXENSART
45.1041DE MAN RÉGIS32BEL2:53:392:53:475:48 10.3631sen
46.2152LEFER VINCENT38BELSKYRUNNER2:53:402:53:495:48 10.3632senFOSSES-LA-VILLE
47.2080DUPONT FRÉDÉRIC36BEL2:53:492:53:595:48 10.3533senNAMUR
48.2267IVANOV EVGENY25BEL2:53:502:54:025:49 10.3434sen
49.2259MARECHAL ARNAUD38BEL2:54:062:54:115:49 10.3335senJENEFFE
50.2007AUQUIER GÉRY62BELOCAN / MJ SPORT2:54:322:54:365:50 10.311ve3HANNÊCHE
51.2230VAN DER KAA VINCENT47BEL2:55:062:55:115:51 10.2811ve1EGHEZEE
52.2158MAES JORIS42BELJCK2:55:122:55:255:51 10.2612ve1KASTERLEE
53.2202ROBYNS RAPHAËL27BEL2:55:092:55:255:51 10.2636senWOLUWE-SAINT-PIERRE
54.2263LEHANCE PASCAL45BEL2:55:482:55:545:52 10.2313ve1LIEGE
55.2045COLOT ETIENNE44BEL2:56:002:56:055:53 10.2214ve1ERMETON/ BIERT
56.2035FCHAINIAUX VIRGINIE31BEL2:55:422:56:075:53 10.224damJEMELLE
57.2200RIGUELLE FRANÇOIS36BELFLEU / POTOS RO2:56:092:56:165:53 10.2137senLIGNY
58.2041CLAEYS JEREMY31BEL2:56:282:56:345:54 10.2038senRUISBROEK
59.2235VAN LANDSCHOOT JONAS28BEL2:56:482:56:545:54 10.1839senRIVIERE
60.2273BAJA MIHAI37ROU2:56:562:57:125:55 10.1640senBRUXELLES
61.2206RONCALLI JEAN-PIERRE58BEL2:57:132:57:185:55 10.152ve2FLAWINNE
62.2256PISSENS JÉRÉMY32BEL2:57:222:57:265:55 10.1541sen
63.2253LEDURE MATTHIEU36BEL2:57:162:57:285:55 10.1442senLOYERS
64.1054GILLARD GREGOIRE27BEL2:57:422:57:475:56 10.1243senNAMUR
65.2227VAN CAENEGEM NICOLAS25BELHIBOU 392:58:322:58:385:58 10.0844senEVERE
66.2107GILLAIN MARTIN23BEL2:58:362:58:455:58 10.0745senPROFONDEVILLE
67.2278DELDEBES FABIEN49BEL2:58:542:58:575:58 10.0615ve1WINENNE
68.2257JACQMIN NATHANAEL52BEL2:59:042:59:115:59 10.053ve2MALONNE
69.1972JANSSENS JÉRÉMIE28BEL2:58:592:59:255:59 10.0346senBRUXELLES
70.2057DEJEMEPPE JULIEN31BEL2:59:302:59:456:00 10.0147senFRANIÈRE
71.2058DELENS FREDERIC43BELMATERNE2:59:533:00:116:01 9.9916ve1FLOREFFE
72.2210RULLENS ADRIEN25BELJCHSH3:01:593:02:056:05 9.8948senLEERNES
73.1044GOOR JEAN-NOËL45BEL3:02:353:02:436:06 9.8517ve1BURDINNE
74.2252ZIMMER DYLAN38BEL3:04:043:04:086:09 9.7849senFLAWINNE
75.2245WIBOU GAETAN36BEL3:04:203:04:286:09 9.7650senBIESME SOUS THUIN
76.2094FANCHINI NICOLAS25BEL3:04:403:04:496:10 9.7451senJEMEPPE SUR SAMBRE
77.2040CLAESSENS CÉDRIC45BELPAROISSE SAINTE3:04:483:04:526:10 9.7418ve1NAMUR
78.1062VAN GINNEKEN JORGO35BEL3:04:483:04:556:10 9.7352senKALMTHOUT
79.2089EVRARD DIDIER52BELRUN PRO3:05:333:05:446:12 9.694ve2BOIS DE VILLERS
80.1055LECOMTE OLIVIER32FRA3:05:403:05:486:12 9.6953senLOUVAIN-LA-NEUVE
81.2215FSEUTIN ANNE40BELCAPTRAIL/ 7 C'E3:05:393:05:496:12 9.691ai1BOIS DE VILLERS
82.2165MASSET ALAIN49BELMATERNE3:05:583:05:596:12 9.6819ve1FLOREFFE
83.2048CRABBE FABRICE42BELMATERNE3:05:563:05:596:12 9.6820ve1FLOREFFE
84.2110GOESSENS JULIEN44BELOCAN3:06:143:06:196:13 9.6621ve1DAUSSOULX
85.2026BRISSEAU DAMIEN40FRA3:06:033:06:236:13 9.6622ve1DEN HAAG
86.2081DUPONT JÉRÉMIE35BELANDUROXC3:07:453:07:486:16 9.5854senANDENNE
87.2240VILLERS FABIAN31BEL3:07:533:07:586:16 9.5855senGRAND-LEEZ
88.2176NEMRY GREGORY32BEL3:07:533:07:586:16 9.5856senMONT SAINT GUIBERT
89.2060FDELMÉE HELENE30BEL3:07:513:08:016:17 9.575damMARCHE LES DAMES
90.2061DELOBBE JONATHAN33BELJOGGING DE L'HE3:08:063:08:216:17 9.5657senSOULME
91.2216STAPELLE ERIC54BELSMAC - CAPTRAIL3:08:223:08:326:18 9.555ve2BOIS-DE-VILLERS
92.2033CASTEELS KEVIN38BEL3:08:113:08:346:18 9.5558senBRUXELLES
93.1038FKRUG EMMA50BEL3:08:223:08:356:18 9.551ai2OHEY
94.2249FBOUCHAT VALÉRIE45BEL3:08:373:08:526:18 9.532ai1
95.2279MERCIER DOMINIQUE50BEL3:08:483:09:016:19 9.526ve2VEDRIN
96.2178NEYS XAVIER50BELLOOPGROEP ASTRE3:08:583:09:046:19 9.527ve2GRONINGEN
97.2164MASSART CORENTIN20BEL3:09:243:09:376:20 9.4959senJAMBES
98.2151LECOMTE NICOLAS43BELO2 MAX JOGGING 3:09:413:10:006:20 9.4723ve1LE ROUX (BELGIQUE)
99.2160MARÉCHAL PHILIPPE43BEL3:09:423:10:016:21 9.4724ve1LE ROUX
100.2063FDE MAN CAROLINE38BELSMAC3:09:583:10:036:21 9.476damBOIS-DE-VILLERS
101.1060LEDUC VINCENT28BEL3:10:193:10:306:21 9.4560sen
102.1047VAN DEN REYM MICHAEL32BEL3:10:193:10:326:22 9.4561senLIER
103.1035DELIEGE LUCAS28BEL3:10:303:10:366:22 9.4462senIXELLES
104.2066FDEMOULIN BRIGITTE57BELSMAC RCNAMUR3:10:243:10:376:22 9.442ai2LUSTIN
105.2004FANTHEUNIS SANDRINE31BEL3:10:353:10:506:22 9.437damNANINNE
106.2100GALVEZ GAUTHIER37FRACABW3:12:003:12:076:25 9.3763senJEMEPPE-SUR-SAMBRE
107.2097FRAIPONT JEAN-MARC45BELJEAN-MARC FRAIP3:12:553:13:016:27 9.3325ve1AMBRESIN
108.2002ALEXIS VINCENT41BELJCHSH3:12:573:13:086:27 9.3226ve1MONT SUR MARCHIENNE
109.2187PIRLOTTE FABIEN33BEL3:13:193:13:286:27 9.3064senOUPEYE
110.2276HOUGARDY BENOIT53BEL3:13:303:13:356:28 9.308ve2SUARLÉE
111.1040THIRION CHARLES-EMMANUEL30BEL3:14:023:14:106:29 9.2765senLIBRAMONT
112.2293DIAZ FREDO41BEL3:13:513:14:116:29 9.2727ve1JAMBES
113.1034DECOUX OLIVIER52BEL3:14:033:14:136:29 9.279ve2
114.2232VAN ENDE JÉRÉMIE41BEL3:14:273:14:366:30 9.2528ve1EGHEZÉE
115.2197REGA ALAIN49BELKNDRVRGD3:15:093:15:186:31 9.2229ve1BIERBEEK
116.2201FROBERTI DAPHNÉ41BELRC NAMUR3:15:213:15:286:31 9.213ai1STAVE (METTET)
117.2271LEROY LIONEL38BEL3:15:243:15:506:32 9.1966sen
118.2051PIREAUX THOMAS35BEL3:15:393:15:566:32 9.1967senSCHAERBEEK
119.2251FMAUDOUX MÉLANIE27BEL3:15:463:15:596:32 9.188damHAM SUR HEURE
120.2047CORNÉLIS PATRICE54BELNRB3:16:443:16:566:34 9.1410ve2PIÉTREBAIS
121.2247SUTTO LIONEL40BEL3:17:053:17:106:35 9.1330ve1
122.1064MEJANI CARLOS48BEL3:17:063:17:106:35 9.1331ve1
123.1977TEERLINCK MICKAEL33BEL3:17:283:17:416:36 9.1168senJODOIGNE
124.2112GOOSSENS BENOIT41BELSOLITAIRE3:17:393:17:426:36 9.1032ve1HINGEON
125.2070DESSEILLE ERNEST63BELRCNAMUR3:17:213:17:446:36 9.102ve3WÉPION
126.2166FMASSON CELINE32BELTEAM TRAIL SING3:18:083:18:136:37 9.089damGEDINNE
127.2127HUBEAUX VINCENT48BELGAG GEMBLOUX3:18:013:18:136:37 9.0833ve1FLAWINNE
128.2018BORBOUSE JOHN47BELSMAC3:18:133:18:246:37 9.0734ve1BOIS-DE-VILLERS
129.2084FEHMANN WILMA29LUXTREVIRE / RUNNI3:18:213:18:276:37 9.0710damHEINSTERT
130.1058GILSON FREDERIC28BEL3:18:333:18:396:38 9.0669senNAMUR
130.1052MASY SEBASTIEN40BEL3:18:253:18:396:38 9.0635ve1WANZE
132.1033D'HAEZE OLIVIER47BEL3:18:543:19:076:39 9.0436ve1SCHAERBEEK
133.2221THIRY FRANÇOIS40BEL3:19:073:19:306:39 9.0237ve1PROFONDEVILLE
134.2234VAN HULLEBUS GIOVANNI25BEL3:19:183:19:356:40 9.0270senOOSTKAMP
135.2074DE VRIENDT JEFFRY35BELRC NAMUR3:19:343:19:406:40 9.0271senGILLY
136.1032HUBERT BRUNO38BELTRÔBON!3:19:593:20:176:41 8.9972senNAMUR
137.2150LEBRUN EMMANUEL49BELMDG TRAIL TEAM 3:20:403:20:486:42 8.9638ve1ARBRE
138.2072DEVALERIOLA PATRICK53BELSMAC/CAP TRAIL3:20:373:20:516:42 8.9611ve2SUARLEE
139.2039CHEVALIER MICHAËL45BEL3:20:463:21:016:43 8.9639ve1NIMY
140.1042NR 61042BEL3:21:013:21:136:43 8.951xxx
141.2269SACRÉ BERNARD58BEL3:21:013:21:176:43 8.9412ve2BRUXELLES
142.2009FBAILY BÉATRICE49BELOCAN3:21:093:21:226:43 8.944ai1GESVES
143.2092FALQUE JOHN44BELRC NAMUR3:21:193:21:336:44 8.9340ve1FLAWINNE
144.2203FROLAND EMMANUELLE41BEL3:21:353:21:586:44 8.915ai1PROFONDEVILLE
145.2140LAFFINEUR AMAURY27BELSMAC CAPTRAIL3:22:143:22:286:45 8.8973senBIOUL
146.2225TIMAL GRÉGORY42FRA3:22:253:22:406:46 8.8841ve1NAMUR
147.2167MATAGNE PIERRE-YVES34BEL3:22:473:22:596:46 8.8774senNAMUR
148.1061VAN DER VORST DENNIS33BEL3:22:543:23:016:47 8.8775sen
149.2141FLAINÉ CLAUDINE44BELRCN/TRAKKS3:23:073:23:116:47 8.866ai1FLOREFFE
150.2265FBARREA CATHY49BEL3:22:553:23:146:47 8.867ai1
151.2228FVAN CAUTEREN KAREN38BELDNKCOACHING3:23:063:23:146:47 8.8611damLIEDEKERKE
152.1037BERTHET ALAIN59BEL3:23:443:23:506:48 8.8313ve2DION VALMONT
153.2121HARDENNE JOEL51BELSMAC/CAPTRAIL3:24:573:25:116:51 8.7714ve2FLAWINNE
154.2095FAUQUENOY SYLVAIN33FRABIOTRAIL RUNNIN3:25:273:25:286:51 8.7676senFOSSES-LA-VILLE
155.2156LIEGEOIS TOM41BEL7 C'EST TOP3:25:183:25:296:51 8.7642ve1LESVES
156.2298ROCHETTE BERTRAND25BEL3:25:183:25:406:52 8.7577senYVOIR
157.2139KUYPERS CHRISTOPHE41BEL3:25:433:25:496:52 8.7543ve1GESVES
158.2163MARQUER OLIVIER43FRA3:25:373:25:576:52 8.7444ve178000
159.2188PIRMEZ CÉDRIC28BELMYRUN/BIOTRAIL3:26:323:26:436:54 8.7178senSOMBREFFE
160.2146LARDINOIS SIMON28BELMYRUN/BIOTRAIL3:26:343:26:446:54 8.7179senBIESME
161.2136JUNION STEVE35BEL3:26:483:27:086:55 8.6980senEGHEZEE
162.2285DUVAL JOCELIN30BEL3:27:213:27:396:56 8.6781sen
163.2199FRENARD DELPHINE35BEL3:27:363:27:426:56 8.6712damWIERDE
164.2297RAC KAROL24BEL3:27:483:28:106:57 8.6582senJAMBES
165.2108GILLANT MICHEL57BEL3:27:593:28:116:57 8.6515ve2MONS
166.1051LAMBION WILLIAM47BEL3:28:363:28:516:58 8.6245ve1VINALMONT
167.2274DUBOIS VINCENT48BELRCN3:28:503:28:546:58 8.6246ve1SAINT-SA 5002
168.2264MILER DANY45BEL3:28:473:29:176:59 8.6047ve1
169.2105GENETTE SÉBASTIEN45BEL3:29:283:29:367:00 8.5948ve1PESSOUX
170.2128FHUBERT ANNABEL46BELMOTIVÉS DE METT3:30:153:30:327:02 8.558ai1DENÉE
171.2231VAN DER LINDEN PAUL68BELRC NAMUR3:30:403:30:437:02 8.543ve3MALONNE
172.2219TESSENS LUC56BELAC LYRA3:30:193:30:437:02 8.5416ve2KONTICH
173.2246YERNAUX CHRISTOPHE41BELMYRUN3:30:473:31:077:03 8.5349ve1NAMUR
174.2099FUMIERE OLIVIER38BELTHE PASSENGER3:31:033:31:137:03 8.5283senLA LOUVIERE
175.2280PATIMY SEBASTIEN44BEL3:31:043:31:137:03 8.5250ve1
176.2046CONARD STEVE42BELNÉVÉ TREK3:31:053:31:167:03 8.5251ve1VEDRIN
177.1974PARDOEN GREGORY33BEL3:30:593:31:237:03 8.5284senBOUGE
178.2182PHILIPPART ROBERT40BELTHE RAPTORS TEA3:31:043:31:267:03 8.5152ve1NANINNE
179.1059SCHANDELER VINCENT33BEL3:31:263:31:327:04 8.5185sen
180.2077FDOUMONT GERALDINE38BELNÉANT3:31:423:31:527:04 8.5013damWOLUWE ST LAMBERT (BELGIQ
181.2241VINDEVOGEL DOMINIQUE58BEL3:32:123:32:237:05 8.4817ve2NAMUR
182.2132JACOB OLIVIER35BELHÉLÈNE DELMÉE3:32:273:32:377:06 8.4786senMARCHE-LES-DAMES
183.2183PIETQUIN DANY46BEL3:32:333:32:437:06 8.4653ve1METTET
184.2153LEMOINE FRANCESCO41BEL3:32:373:32:517:06 8.4654ve1BUZET
185.1976SCHOEVAERDTS DOMINIQUE56BEL3:33:203:33:307:07 8.4318ve2BRUXELLES
186.2296BATAILLE BAPTISTE40BEL3:33:163:33:357:08 8.4355ve1DILBEEK
187.2223THOLL JEAN-PHILIPPE37BEL3:33:233:33:427:08 8.4287senETALLE
188.1029MERCENER BENOIT41BEL3:33:243:33:427:08 8.4256ve1
189.2194RACELLE VINCENT34BEL3:34:043:34:107:09 8.4088senARLON
190.2299FKEMPTER KARINE47CHE3:34:053:34:177:09 8.409ai1VUFFLENS-LA-VILLE
191.2300KEMPTER JEAN-BAPTISTE47CHE3:34:063:34:177:09 8.4057ve1VUFFLENS-LA-VILLE
192.2204ROMAIN RUDI50BELRUDI ROMAIN3:34:213:34:527:10 8.3819ve2WARNANT
193.2254NESI JEAN-PAUL53BEL3:35:273:35:457:12 8.3420ve2
194.2014BIART QUENTIN37BEL3:35:403:35:537:12 8.3489senDAUSSOULX
195.2180OPSOMMER HUGUES44BEL3:35:513:35:597:12 8.3358ve1SOMBREFFE
196.2120HANSEN JEAN-MARIE59BELRCNAMUR3:36:043:36:197:13 8.3221ve2SPY
197.2124HENS STÉPHANE41BELNCFYC3:35:573:36:237:13 8.3259ve1COUILLET
198.2162FMAROT CAROLINE43BELSMAC3:36:193:36:257:13 8.3210ai1FLAWINNE
199.2012BEGUIN OLIVIER42BELNCFYC3:36:163:36:437:14 8.3160ve1PONT-À-CELLES
200.2088ESTERHAZY NICHOLAS56BELNICHOLAS ESTERH3:36:253:36:517:14 8.3022ve2WAVRE
201.1050CAUPAIN FABIAN48BEL3:37:183:37:347:16 8.2761ve1
202.2207FROUSSEAUX SOPHIE39BEL3:37:233:37:407:16 8.2714damMALONNE
203.2290FROSIER VANESA39BEL3:37:303:37:547:16 8.2615dam
204.2024BRAMS HUGUES51BELJAMES3:37:303:37:547:16 8.2623ve2OTTIGNIES
205.2098FRIPPIAT GAËTAN45BEL3:37:333:37:567:16 8.2662ve1NAMUR
206.2222THIRY PIERIG34BEL3:38:213:38:387:18 8.2390senSCHAERBEEK
207.1043NR 61043BEL3:38:273:38:387:18 8.232xxx
208.1056FVLAEMMIMEK-DECOMBELE LAETITIA22FRA3:38:463:39:037:19 8.2216dam
209.1057VLAEMMINCK PASCAL52BEL3:39:153:39:327:20 8.2024ve2JAUCHE
210.2052ETIENNE VINCENT49BEL3:39:373:39:587:20 8.1863ve1ANDENNE 5300 ANDENNE
211.2226FTYS FLORENCE29BEL3:39:533:40:097:21 8.1817damWOLUWE-SAINT-PIERRE
212.2236VAN NIEUWENHUYZE ERIC49BELSELLARONDA TRAI3:40:093:40:247:21 8.1764ve1DERGNEAU
213.2135JACQUET JEAN-FRANCOIS44BEL3:40:033:40:247:21 8.1765ve1VEDRIN
214.2101FGAUTHIER SYLVIE32BELCARACO'TRAILERS3:40:483:41:047:23 8.1418damGESVES
215.2243WARNANT ALEXANDRE35BEL3:41:103:41:207:23 8.1391senAISEMONT
216.2213SCHEERS MICHAEL33BEL3:41:063:41:257:23 8.1392senCOUTHUIN
217.2071DETURCK SVEN28BEL3:41:183:41:287:23 8.1393senDEINZE
218.2102GAZIAUX OLIVIER43BEL7 C'EST TOP3:42:073:42:167:25 8.1066ve1BOIS DE VILLERS
219.2196RADERMACKER ROMUALD42BEL3:41:523:42:177:25 8.1067ve1LIGNY
220.2281BAUDUIN DIDIER50BEL3:42:303:42:467:26 8.0825ve2
221.2055DEGROOTE NICOLAAS42BELNAC3:42:303:42:467:26 8.0868ve1BRUXELLES
222.2260FERAUCHE JEAN-MARIE68BELUAC3:42:383:42:547:26 8.084ve3LES BONS VILLERS
223.2212FSCAILTEUR VÉRONIQUE40BELCPMV3:42:443:42:597:26 8.0711ai1TARCIENNE
224.1978FVAN CASTER SANDRINE YVONNE43BEL3:42:393:43:037:27 8.0712ai1LASNE
225.2064FDEMARET MÉLANIE28BEL3:42:443:43:047:27 8.0719damBRAINE-LE-COMTE
226.2143LAMBERT FRÉDÉRIC32BEL3:42:443:43:057:27 8.0794senBRAINE-LE-COMTE
227.2068DESILLE JEREMIE39BEL3:43:123:43:227:27 8.0695senBELGRADE
228.2087ERNOULD ALAIN52BELJOG HERMETON3:43:233:43:397:28 8.0526ve2ROMEDENNE
229.2144LANGUE FREDERIC46BEL3:44:233:44:467:30 8.0169ve1JAMBES
230.2115GREGOIRE CLAUDE57BEL3:45:013:45:117:31 7.9927ve2SOMBREFFE
231.2104GEETS BERTRAND47BEL3:46:243:46:407:34 7.9470ve1GELBRESSEE
232.2288FSNAUWAERT CARINE38BEL3:46:233:46:477:34 7.9420damTEMPLOUX
233.2289LEJEUNE ETIENNE43BEL3:46:243:46:477:34 7.9471ve1TEMPLOUX
234.2044COLLET JEREMY41BELJEM'ACTIVE3:46:333:46:477:34 7.9472ve1SPY
235.2021BOUROTTE NICOLAS41BELCCSTC3:46:333:46:487:34 7.9473ve1SOYE
236.2038FCHARLIER NATHALIE36BEL7 C'EST TOP3:47:193:47:297:35 7.9121damLESVES
237.2170MEDJE PYTHAGORE35CMR3:47:323:47:437:36 7.9096senDAMPREMY
238.2082DUPONT PIERRE61BELJAMES3:48:023:48:267:37 7.885ve3LIMAL
239.2028FBRUMAGNE CLAIRE50BELJAMES3:48:033:48:267:37 7.883ai2LLNEUVE
240.2220THEEUWEN ROLAND48NLD3:48:203:48:297:37 7.8874ve1MONSTER
241.2174MULDER MENNO45NLDMACH23:48:203:48:297:37 7.8875ve1MONSTER
242.2268SACRÉ JEAN-FRANÇOIS55BEL3:48:293:48:457:38 7.8728ve2BEERSEL-LOT
243.2116GRISARD PIERRE45BELDÉDÉ FOULÉES3:49:063:49:287:39 7.8476ve1ERPENT
244.2109GILLIARD VINCENT52BELAEDES3:49:163:49:367:40 7.8429ve2WÉPION
245.1046DOUILLET MICHEL41BEL3:49:143:49:377:40 7.8477ve1LUSTIN
246.2073DEVEL NICOLAS39BEL3:49:423:50:037:41 7.8297senWEZEMBEEK-OPPEM
247.2295FQUERTINIER ANNE-LAURE41BEL3:49:493:50:067:41 7.8213ai1NAMUR
248.2050FDAMAR ANNE-CÉCILE42BEL3:49:503:50:087:41 7.8214ai15000
249.2129FHUCORNE SANDRINE46BEL3:50:003:50:217:41 7.8115ai1VEDRIN
250.2031CALANDE SIMON38BELGAG3:50:163:50:337:42 7.8198senTONGRINNE
251.2179FNOULLET ANNE-LISE37BELGAG3:50:473:50:477:42 7.8022damTONGRINNE
252.2177NEYMAN PASCAL49BEL3:50:463:51:057:43 7.7978ve1SAINT-GÉRARD
253.2147FLATIERS MÉLANIE38BELTEAM MY RUN3:50:503:51:087:43 7.7923damNAMUR
254.2090FFABRY STEPHANIE39BELMY RUN3:50:513:51:087:43 7.7924damSAINT DENIS
255.2042CLOSSET OLIVIER44BEL3:51:513:51:597:44 7.7679ve1WÉPION
256.2193FPRUDENCIO IBELIZ35BOLNICK_IBE3:52:283:52:447:46 7.7325damKRAAINEM
257.1973CARPENTIER JEAN JACQUES58FRA3:53:203:53:457:48 7.7030ve2BOLLEVILLE
258.1971BLERO DANIEL46BEL3:53:353:53:597:48 7.6980ve1LA HULPE
259.2239VERCAUTEREN BERTRAND54BELSMAC3:54:003:54:147:49 7.6831ve2BELGRADE
260.2277KUYPERS EDDY63BEL3:54:283:54:567:50 7.666ve3LOUVAIN-LA-NEUVE
261.2093FFAMERÉE CHRISTELLE42BEL3:54:443:54:577:50 7.6616ai1CINEY
262.1031FROIDMONT LOIC31BEL3:55:013:55:257:51 7.6599sen
263.1030CUGNON RUDY48BEL3:55:013:55:257:51 7.6581ve1JAMBES
264.2126HOTAT MICHEL48BELJAMES3:55:233:55:477:52 7.6382ve1VILLERS-LA-VILLE
265.2214FSCHEYVEN GENEVIEVE49BELRC NAMUR3:56:133:56:177:53 7.6217ai1BEEZ
266.2145FLAPAGNE FRANÇOISE54BELR.C.N3:56:133:56:177:53 7.624ai2NAMUR
267.2067FDENIS NATHALIE54BELRCNAMUR3:56:133:56:187:53 7.625ai2LESVE
268.2075FDEWITTE FABIENNE40BELWHITE SHARKS3:56:383:57:057:55 7.5918ai1TOURNAI
269.2148LEBACQ MARC63BEL3:57:273:57:487:56 7.577ve3WAVRE
270.2049CUVELIER SERGE57BELR.C.NAMUR3:58:553:59:017:59 7.5332ve2WÉPION
271.2056FDEHANT ANNE-PASCALE51BELRC NAMUR3:58:563:59:017:59 7.536ai2WÉPION
272.1036FSTURBOIS ANNE-SOPHIE42BEL3:58:453:59:107:59 7.5319ai1CORBAIS
273.2242VOGELEER STÉPHANE54BELZATAC ET LGS3:59:193:59:328:00 7.5133ve2LIEGE
274.1049CODJIA MARQUIS30BEL3:59:303:59:498:00 7.51100sen
275.2010FBARBETTE SOPHIE35BEL4:01:154:01:278:03 7.4626damLOYERS
276.2030FCABAN-BENAVIDES MONIKA54POLRCB4:01:424:01:538:04 7.447ai2BXL
277.2006FAUDENAERT GENEVIEVE39BELJAMES4:01:294:01:558:04 7.4427damCEROUX-MOUSTY
278.2138FKUYPERS ANNE-CÉCILE36BELJAMES4:01:294:01:558:04 7.4428damWIERDE
279.2125FHOCK FRANÇOISE52BELJAMES4:01:294:01:568:04 7.448ai2OTTIGNIES
280.1053FHENROZ DIANE54BEL4:01:384:01:588:04 7.449ai2
281.1975LUIJKX ANTOINE34BEL4:02:024:02:288:05 7.42101senFRAMERIES
282.2091FAIVRE MATTHIEU39BEL4:02:584:03:248:07 7.40102senBRAINE-L'ALLEUD
283.2275HORSMAN REMCONLD4:03:384:03:598:08 7.383xxx
284.2282PINON RYELANDT CHRISTIAN52BEL4:05:174:05:458:12 7.3234ve2COURT-ST-ETIENNE
285.2192POURIGNAUX YVES47BEL4:08:354:08:538:18 7.2383ve1JAMBES
286.2103GEERTS CHRISTIAN52BELDREAM TEAM4:09:134:09:338:20 7.2135ve2WEMMEL
287.2111GOFFINET MICHEL56BELLDLV4:10:234:10:398:22 7.1836ve2MOLENBEEK
288.2217STRUVAY LUDOVIC33BEL4:11:364:11:558:24 7.15103senANDENNE
289.2175FMUYS CELINE34BEL4:12:384:12:558:26 7.1229damGELBRESSÉE
290.2255DUQUESNE PAUL53BEL4:13:594:14:178:29 7.0837ve2WAUDREZ
291.2154LEONET THOMAS36BELJOGGANS4:14:254:14:518:30 7.06104senZELLIK
292.2211FSALHI NADIA52BEL4:17:324:17:468:36 6.9810ai2COURCELLES
293.2233VAN ERP JEAN-PHILIPPE52BELRIWA BIOTRAIL4:21:014:21:018:43 6.9038ve2MONT
294.2114GRÉGOIRE ARNAUD48BEL4:25:094:25:328:52 6.7884ve1PERWEZ
295.2043COLINET JÉRÔME42BELTEAM MY RUN4:26:534:27:038:55 6.7485ve1GÉROMPONT
296.2016FBONNET DOROTHÉE51BELHEIN4:26:454:27:038:55 6.7411ai2BELOEIL
297.2001ALEXANDRE MICHAEL42BEL4:26:574:27:078:55 6.7486ve1THY LE CHATEAU
298.2186PIQUARD BEN50BELRIWA4:42:154:42:309:25 6.3739ve2GENVAL
299.2208FROUZEEUW GINETTE60BELRIWA4:42:164:42:309:25 6.371ai3RIXENSART
300.2022BOUTONNET STÉPHANE42FRACBC4:43:224:43:429:28 6.3487ve1MANDRES LES ROSES
DSQ2159MAQUET PHILIPPE39BEL2:28:012:28:01senDINANT
DNF2008AUQUIER QUENTIN32BELSMACsenNANINNE
DNF2029BUNDERVOET BENJAMIN42BELve1LOCHRISTI
DNF1459DEKEMPS HYUN36BELsen
DNF1458GHIJS JONATAN34BELN.V.WILLEMOTsenZOTTEGEM
DNF: did not finish; DSQ: disqualified; Speed in km/h
Page: [1]